Regional Weather Roundup
Issued by NWS

Home | Current Version | Previous Version | Graphics & Text | Print | Product List | Glossary On
Versions: 1 2 3 4 5 6 7 8 9 10 11 12 13 14 15 16 17 18 19 20 21 22 23 24 25 26 27
000
ASUS45 KPSR 040010
RWRAZ

ARIZONA HOURLY REGIONAL WEATHER ROUNDUP
NATIONAL WEATHER SERVICE PHOENIX AZ
500 PM MST SAT DEC 03 2016

NOTE: FAIR INDICATES FEW OR NO CLOUDS BELOW 12,000 FEET WITH NO
SIGNIFICANT WEATHER AND/OR OBSTRUCTIONS TO VISIBILITY.

AZZ001>003-036-040100-
NORTHWEST ARIZONA

CITY           SKY/WX    TMP DP  RH WIND       PRES   REMARKS
BULLHEAD CITY  CLEAR     63   9  12 N15G26    30.09S
KINGMAN        CLEAR     49   5  16 N12       30.10S
6HR MIN TEMP:  43; 6HR MAX TEMP:  52;

$$

AZZ004>008-015-016-018-040100-
NORTH CENTRAL ARIZONA

CITY           SKY/WX    TMP DP  RH WIND       PRES   REMARKS
GRAND CANYON   CLEAR     35   8  32 NE9       30.13S WCI  28
6HR MIN TEMP:  34; 6HR MAX TEMP:  41;

PRESCOTT       CLEAR     49  17  28 NW10      30.04R
6HR MIN TEMP:  42; 6HR MAX TEMP:  53;

FLAGSTAFF      CLEAR     36  10  34 NE13      30.08R WCI  27
6HR MIN TEMP:  34; 6HR MAX TEMP:  42;

PAYSON         CLEAR     46  19  34 N9G17     30.05R
PAGE           CLEAR     42   9  25 CALM      30.13S
6HR MIN TEMP:  38; 6HR MAX TEMP:  44;

$$

AZZ009>014-017-040100-
NORTHEAST ARIZONA

CITY           SKY/WX    TMP DP  RH WIND       PRES   REMARKS
WINSLOW        CLEAR     45  15  30 NW16      30.09S
6HR MIN TEMP:  39; 6HR MAX TEMP:  48;

SAINT JOHNS    CLEAR     43  26  51 NW10      30.03R
6HR MIN TEMP:  36; 6HR MAX TEMP:  46;

SHOW LOW       CLEAR     36  21  55 N12       30.07R WCI  27
$$

AZZ023-040100-
GREATER PHOENIX AREA

CITY           SKY/WX    TMP DP  RH WIND       PRES   REMARKS
PHOENIX        CLEAR     68  25  19 W14       29.89S
6HR MIN TEMP:  58; 6HR MAX TEMP:  70;

BUCKEYE        CLEAR     66  19  16 NW7       29.94S
GLENDALE       CLEAR     70  27  19 SW8       29.92S
LUKE AFB       CLEAR     67  28  23 SW9       29.90S
6HR MIN TEMP:  64; 6HR MAX TEMP:  69;

DEER VALLEY    CLEAR     69  23  17 NW8       29.90S
6HR MIN TEMP:  60; 6HR MAX TEMP:  70;

SCOTTSDALE     CLEAR     68  24  19 W3        29.92S
6HR MIN TEMP:  62; 6HR MAX TEMP:  69;

MESA-GATEWAY   CLEAR     66  25  20 NW8       29.91S
CHANDLER       CLEAR     66  23  19 W9        29.91R
$$

AZZ027-028-040100-
SOUTHWEST MARICOPA COUNTY AND PINAL COUNTY

CITY           SKY/WX    TMP DP  RH WIND       PRES   REMARKS
CASA GRANDE    NOT AVBL
GILA BEND      CLEAR     66  21  18 N6        29.93S
$$

AZZ503-504-507>509-040100-
SOUTHEAST ARIZONA

CITY           SKY/WX    TMP DP  RH WIND       PRES   REMARKS
TUCSON         CLEAR     62  29  28 NW7       29.93S
6HR MIN TEMP:  53; 6HR MAX TEMP:  63;

DAVIS-MONTHAN  CLEAR     60  29  30 NW10      29.92R
6HR MIN TEMP:  51; 6HR MAX TEMP:  62;

RYAN FIELD     CLEAR     61  30  31 NW9       29.94R
NOGALES        MOCLDY    56  31  38 NW8       29.92R
6HR MIN TEMP:  54; 6HR MAX TEMP:  62;

SIERRA VISTA   MOCLDY    53  36  51 CALM      29.95R
6HR MIN TEMP:  46; 6HR MAX TEMP:  54;

DOUGLAS        CLOUDY    49  38  65 E13       29.95R
6HR MIN TEMP:  47; 6HR MAX TEMP:  54;

SAFFORD        CLEAR     57  39  51 S9        29.93R
6HR MIN TEMP:  54; 6HR MAX TEMP:  60;

$$

AZZ020-021-025-026-031-040100-
SOUTHWEST ARIZONA

CITY           SKY/WX    TMP DP  RH WIND       PRES   REMARKS
YUMA           CLEAR     66  11  11 N9G17     29.99S
6HR MIN TEMP:  61; 6HR MAX TEMP:  68;

$$

CAZ031-033-041-043-047-048-061-040100-
SOUTHERN CALIFORNIA

CITY           SKY/WX    TMP DP  RH WIND       PRES   REMARKS
DOWNTOWN L.A.  CLEAR     65  26  23 W5        30.04S
6HR MIN TEMP:  60; 6HR MAX TEMP:  68;

L.A. AIRPORT   CLEAR     63  30  28 W6        30.05F
6HR MIN TEMP:  61; 6HR MAX TEMP:  66;

SAN DIEGO      CLEAR     63  34  33 N10       30.05F
6HR MIN TEMP:  61; 6HR MAX TEMP:  67;

BURBANK        CLEAR     65  26  23 S5        30.04S
6HR MIN TEMP:  59; 6HR MAX TEMP:  67;

ONTARIO        CLEAR     64  10  12 NW7       30.05S
6HR MIN TEMP:  58; 6HR MAX TEMP:  67;

RIVERSIDE      CLEAR     71  15  11 N18G26    30.02F
6HR MIN TEMP:  61; 6HR MAX TEMP:  72;

PALM SPRINGS   CLEAR     71   2   6 S9        30.04F
6HR MIN TEMP:  64; 6HR MAX TEMP:  72;

EL CENTRO NAS  CLEAR     66  10  11 N12       30.03S
6HR MIN TEMP:  64; 6HR MAX TEMP:  69;

IMPERIAL       CLEAR     67  19  16 N14       30.00F
6HR MIN TEMP:  63; 6HR MAX TEMP:  69; 6HR PCP: TRACE;

BLYTHE         PTCLDY    66   5   9 NW16      30.02R
6HR MIN TEMP:  60; 6HR MAX TEMP:  68;

NEEDLES        CLEAR     63   7  11 N25G31    30.06S
6HR MIN TEMP:  58; 6HR MAX TEMP:  65;

$$

NVZ020-UTZ003-040100-
SOUTHERN NEVADA-UTAH

CITY           SKY/WX    TMP DP  RH WIND       PRES   REMARKS
LAS VEGAS      PTCLDY    58   4  11 E5        30.14S
6HR MIN TEMP:  51; 6HR MAX TEMP:  58;

SALT LAKE CITY MOCLDY    34  20  56 S7        30.26S WCI  28
6HR MIN TEMP:  32; 6HR MAX TEMP:  35;

$$

NMZ009-TXZ055-040100-
NEW MEXICO-WEST TEXAS

CITY           SKY/WX    TMP DP  RH WIND       PRES   REMARKS
ALBUQUERQUE    PTCLDY    44  23  43 N16G25    30.00R
6HR MIN TEMP:  40; 6HR MAX TEMP:  48;

EL PASO        MOCLDY    47  38  71 N6        29.95R
6HR MIN TEMP:  40; 6HR MAX TEMP:  47; 6HR PCP:  0.05;

$$


........................KEY........................
SKY/WX - SKY CONDITION/WEATHER
TMP    - TEMPERATURE IN FAHRENHEIT
DP     - DEW POINT IN FAHRENHEIT
RH     - RELATIVE HUMIDITY IN PERCENT
WIND   - DIRECTION AND SPEED IN MILES PER HOUR (MPH)
VRB    - VARIABLE WIND DIRECTION
PRES   - MEAN SEA LEVEL PRESSURE IN INCHES OF MERCURY
         F - FALLING PRESSURE   R - RISING PRESSURE
         S - STEADY PRESSURE
VSB    - VISIBILITY IN MILES
HX     - HEAT INDEX IN FAHRENHEIT
WCI    - WIND CHILL INDEX IN FAHRENHEIT
TC     - TEMPERATURE IN CELSIUS WHICH IS ALSO KNOWN AS
         TEMPERATURE IN CENTIGRADE
AFB    - AIR FORCE BASE
         LUKE AFB IS LUKE AIR FORCE BASE
         DAVIS-MONTHAN IS DAVIS-MONTHAN AIR FORCE BASE
NAS    - NAVAL AIR STATION
         EL CENTRO NAS IS EL CENTRO NAVAL AIR STATION
N/A    - NOT AVAILABLE





USA.gov is the U.S. government's official web portal to all federal, state and local government web resources and services.